Home   Weather   Provo   Past weeks

Flag for USA Past Weather in Provo, Utah, USA — Yesterday and Last 2 Weeks

Now
72 °F

Passing clouds.


Feels Like: 77 °F
Forecast: 67 / 87 °F
Wind: 7 mph from South

Location: Provo Municipal

Current Time: Jul 21, 2017 at 5:12:03 am

Latest Report: Jul 21, 2017 at 3:56 am


Visibility: 10 mi

Pressure: 29.86 "Hg (25.44 "Hg at 1386m altitude)

Humidity: 55%

Dew Point: 55 °F

Location of ProvoLocation

Past Weather in Provo — Graph

°F

Provo Temperature Yesterday

Maximum temperature yesterday: 91 °F (at 4:58 pm)
Minimum temperature yesterday: 66 °F (at 6:58 am)
Average temperature yesterday: 79 °F

High & Low Weather Summary for the Past Weeks

 TemperatureHumidityPressure
High100 °F (Jul 6, 3:58 pm)78% (Jul 19, 9:37 pm)32.99 "Hg (Jul 19, 9:37 pm)
Low62 °F (Jul 13, 6:56 am)10% (Jul 6, 4:58 pm)29.73 "Hg (Jul 17, 4:56 pm)
Average80 °F41%30.03 "Hg
* Reported Jul 6 3:56 am — Jul 21 3:56 am, Provo. Weather by CustomWeather, © 2017

Note: Actual official high and low records may vary slightly from our data, if they occured in-between our weather recording intervals... More about our weather records

Advertising

Provo Weather History for the Previous 24 Hours

Scroll right to see more
 ConditionsComfort  
Time TempWeatherWind HumidityBarometerVisibility
3:56 am
Fri, Jul 21
72 °FPassing clouds.7 mph55%29.86 "Hg10 mi
2:56 am73 °FClear.5 mph51%29.87 "Hg10 mi
1:56 am76 °FClear.16 mph45%29.85 "Hg10 mi
12:56 am72 °FClear.8 mph53%29.88 "Hg10 mi
11:56 pm
Thu, Jul 20
76 °FClear.9 mph47%29.88 "Hg10 mi
10:56 pm77 °FClear.9 mph47%29.86 "Hg10 mi
9:56 pm79 °FClear.10 mph44%29.86 "Hg10 mi
8:56 pm80 °FClear.6 mph47%29.85 "Hg10 mi
8:20 pm82 °FBroken clouds.7 mph42%30.03 "Hg10 mi
7:58 pm84 °FPartly sunny.12 mph37%30.03 "Hg10 mi
6:58 pm90 °FPartly sunny.17 mph33%30.03 "Hg10 mi
5:58 pm91 °FPartly sunny.5 mph28%30.03 "Hg10 mi
4:58 pm91 °FBroken clouds.5 mph30%30.04 "Hg10 mi
3:58 pm90 °FBroken clouds.5 mph31%30.06 "Hg10 mi
2:58 pm90 °FBroken clouds.5 mph31%30.09 "Hg10 mi
1:58 pm88 °FScattered clouds.5 mph33%30.12 "Hg10 mi
12:56 pm87 °FSunny.6 mph33%29.96 "Hg10 mi
11:58 am82 °FScattered clouds.5 mph48%30.16 "Hg10 mi
10:58 am81 °FScattered clouds.10 mph45%30.16 "Hg10 mi
9:58 am79 °FScattered clouds.10 mph48%30.16 "Hg10 mi
8:58 am77 °FScattered clouds.9 mph51%30.15 "Hg10 mi
7:58 am72 °FScattered clouds.9 mph61%30.15 "Hg10 mi
7:56 am71 °FSunny.5 mph63%29.99 "Hg10 mi
6:58 am66 °FScattered clouds.No wind68%30.12 "Hg10 mi
5:56 am67 °FClear.8 mph68%29.96 "Hg10 mi
Weather by CustomWeather, © 2017

See weather overviewHow to use our weather pages